Location: Julian California
(33.0790°N, 116.6010°W)
Time: 04:52:08
(UTC-07:00)

NOSS 3-1 (C) - Pass Details

Date: 12 July 2018
Orbit: 803 x 1406 km, 63.4° (Epoch: 10 July)

Event Time Altitude Azimuth Distance (km) Brightness Sun altitude
Rises 23:35:27 0° 326° (NW) 4,114 7.8 -32.1°
Reaches altitude 10° 23:38:07 10° 324° (NW) 3,221 7.0 -32.3°
Maximum altitude 23:45:58 66° 244° (WSW) 1,450 4.2 -32.9°
Enters shadow 23:46:15 66° 233° (SW) 1,457 4.1 -32.9°
